User: anonymous   Login
Location: Unspecified
(0.0000°N, 0.0000°E)
Time: 12:05:55
(UTC+00:00)
Language:

Vela 6A - Orbit

View from above orbital plane
View from above orbital plane
View from above satellite
View from above satellite

Ground track
Ground track

The orbit data is extracted from the following two-line orbital elements,

1 04366U 70027A   15030.17637821  .00000409  00000-0  00000+0 0   363
2 04366 050.6498 240.7581 6917693 083.9144 359.3396 00.21454863 28809
Epoch (UTC): 30 January 2015 04:13:59
Eccentricity: 0.6917693
inclination: 50.6498°
perigee height: 29951 km
apogee height: 193020 km
right ascension of ascending node: 240.7581°
argument of perigee: 83.9144°
revolutions per day: 0.21454863
mean anomaly at epoch: 359.3396°
orbit number at epoch: 2880

The dashed part of the orbit path shows where the satellite is in the earth's shadow,  

DLR